Location: Mahannah Oil Field
(37.4664°N, 96.6003°W)
Time: 08:57:55
(UTC+00:00)

Courier 1B - Pass Details

Date: 29 January 2021
Orbit: 962 x 1209 km, 28.3° (Epoch: 02 March)

Event Time Altitude Azimuth Distance (km) Brightness Sun altitude
Rises 09:09:07 0° 260° (W) 3,674 - -51.9°
Reaches altitude 10° 09:13:01 10° 238° (WSW) 2,699 - -51.1°
Maximum altitude 09:16:32 15° 205° (SSW) 2,330 - -50.5°
Drops below altitude 10° 09:20:01 10° 172° (S) 2,680 - -49.8°
Sets 09:23:53 0° 150° (SSE) 3,634 - -49.1°
